GFSCGP_sfc_wetblb_276.txt.gz
Wetbulb
31.44 27.52 26.25 31.52 32.69 31.89 31.24 30.16 29.26 31.19 33.21 30.73 29.99 31.61 35.14 37.04 32.90 33.22 35.08 35.31 35.12 36.27 39.43 38.23 40.54 40.37 41.11 41.61 41.33 41.45 40.36 39.68 39.79 37.32 36.92 36.99 37.68 38.79 38.76 40.24 42.11 42.08 42.09 42.18
27.36 24.56 29.76 31.48 31.64 31.31 30.02 28.31 28.01 31.36 32.36 30.66 29.82 30.02 34.86 36.55 35.72 36.37 37.27 37.16 37.15 37.66 35.42 37.52 37.70 38.94 40.45 40.80 41.00 40.64 41.36 39.44 40.28 39.14 38.30 38.29 37.66 37.92 38.70 40.39 41.32 42.06 41.85 41.47
25.46 28.00 31.46 31.35 28.14 28.69 27.56 27.76 27.75 29.31 31.41 29.44 27.55 28.41 31.34 35.35 35.38 36.64 38.71 39.23 38.64 38.32 37.25 36.49 37.70 38.50 40.03 40.21 40.08 40.84 40.97 40.12 40.27 39.63 39.37 38.14 38.43 38.10 38.29 39.23 39.81 41.07 41.36 41.32
26.78 28.98 29.72 27.31 27.75 29.07 24.52 29.19 29.55 28.72 26.61 23.21 27.07 22.61 28.61 35.17 35.98 35.95 36.81 35.45 37.26 37.08 37.25 37.99 37.76 37.03 38.84 40.16 39.85 41.10 41.19 40.58 40.25 40.49 39.28 37.63 36.36 36.23 37.74 38.40 38.92 39.62 40.71 40.31
25.12 25.60 25.70 25.90 27.10 29.72 26.08 28.74 27.39 26.42 24.41 22.08 21.22 21.42 25.76 31.89 34.32 36.95 36.10 35.56 35.50 36.14 35.99 36.56 37.92 38.91 39.55 39.70 39.04 40.65 40.91 40.60 40.71 40.55 40.07 37.68 36.26 37.17 37.54 37.47 37.96 38.22 38.81 39.71
25.65 27.39 26.34 26.50 26.95 27.21 29.59 27.24 27.12 24.79 22.71 15.51 23.63 24.59 22.89 31.12 33.91 35.66 35.55 35.69 36.35 35.71 35.21 35.39 36.83 38.99 39.04 38.81 39.20 39.83 39.99 40.03 39.89 40.27 38.70 37.90 36.92 37.13 36.84 36.46 36.36 36.63 37.07 37.02
23.96 24.45 25.06 27.76 24.63 26.41 26.04 23.09 17.21 14.64 11.75 16.82 22.27 22.11 26.50 32.47 35.04 35.91 36.08 37.34 35.97 34.60 34.58 34.98 34.60 35.83 36.08 37.28 37.90 38.93 39.39 38.83 39.41 39.39 38.77 37.94 37.30 37.11 36.83 36.59 35.94 35.30 35.17 35.07
19.01 18.27 24.05 26.97 25.78 24.15 23.00 22.68 19.06 12.68 15.68 21.04 22.97 21.04 29.22 35.06 36.38 36.51 36.96 36.70 35.84 35.08 34.75 35.04 34.89 36.61 37.31 38.13 38.74 39.40 38.72 39.24 38.90 38.95 38.55 37.91 37.59 36.94 36.58 36.23 35.71 35.32 34.94 34.86
16.80 21.77 24.58 25.98 25.05 25.52 23.52 20.49 25.05 19.81 13.87 15.74 21.64 25.27 31.98 34.48 33.32 33.97 34.47 34.02 34.84 35.37 35.32 35.60 35.29 34.77 36.40 37.78 38.89 39.75 39.05 39.58 38.83 38.87 38.40 37.23 36.95 36.67 36.33 35.95 35.64 35.10 34.95 35.83
25.65 19.68 23.22 24.32 25.07 25.12 23.87 25.84 19.76 18.15 10.70 9.42 21.34 22.05 26.29 30.57 32.83 32.54 32.56 33.25 33.50 33.70 33.89 34.42 34.61 35.00 36.54 38.36 39.60 39.70 39.72 38.99 38.55 38.04 37.89 37.49 37.02 36.61 36.09 35.51 34.88 34.64 34.74 35.12
22.48 23.50 20.07 22.11 19.48 21.51 20.97 20.15 19.81 19.89 20.59 16.30 16.07 22.96 29.81 31.66 33.46 33.18 33.38 33.64 33.60 33.70 33.87 34.06 34.41 34.88 35.19 35.74 36.53 37.58 36.46 36.45 36.30 37.18 36.76 35.91 36.29 36.12 35.81 35.05 34.71 34.46 34.63 34.54
29.47 25.82 15.76 17.66 21.08 22.75 22.06 23.07 23.06 17.49 16.89 19.68 21.47 24.17 32.01 31.94 32.03 32.89 33.33 35.01 34.33 33.74 33.38 33.35 33.95 34.15 33.81 34.18 34.69 36.04 36.17 36.45 37.28 37.18 36.49 36.16 36.06 35.98 35.09 34.49 34.28 34.45 33.85 34.02
30.04 25.14 14.09 15.95 18.32 20.11 16.22 22.48 24.11 23.69 22.62 17.52 17.17 24.99 31.50 31.29 32.13 31.74 32.59 32.76 34.59 34.42 33.91 34.03 33.69 33.85 33.85 33.72 33.98 34.79 35.89 37.21 36.18 36.02 35.77 35.43 35.57 35.24 34.44 33.99 34.01 33.98 33.54 33.24
35.43 27.72 25.34 21.06 19.73 18.20 13.05 14.66 23.13 20.73 14.35 24.01 25.69 26.91 28.39 28.98 30.95 32.35 33.42 32.77 34.52 34.80 35.33 34.86 33.59 33.75 34.06 34.34 34.28 35.16 36.12 36.67 35.41 35.70 35.50 35.22 34.92 35.05 34.24 33.94 33.50 33.34 33.06 32.50
31.20 24.15 27.12 29.24 26.05 21.81 21.53 15.25 19.70 21.33 26.37 21.68 29.03 26.59 29.95 31.98 32.68 33.26 33.34 33.90 34.24 35.07 34.82 34.43 34.71 35.72 35.21 33.60 33.62 34.84 35.58 34.80 35.14 35.45 35.03 35.08 35.01 34.38 33.69 33.08 32.77 32.57 32.20 32.20
28.96 26.32 25.33 25.77 29.17 27.36 25.36 26.64 19.25 23.37 25.47 26.65 27.68 25.65 29.40 32.58 32.24 31.79 33.22 33.81 33.90 34.37 35.18 36.05 36.10 35.17 35.15 36.60 36.75 35.56 34.79 33.82 34.63 35.08 35.02 34.63 33.99 33.66 33.14 32.51 31.98 31.39 31.17 31.13
25.40 25.40 22.32 22.38 27.54 27.08 20.53 25.30 26.53 25.04 24.18 26.60 23.03 28.97 32.12 31.98 33.16 34.93 36.13 35.74 35.55 35.50 36.17 35.90 35.62 36.93 37.56 36.90 36.70 34.43 34.74 32.66 33.60 33.91 33.68 33.44 33.62 32.81 32.13 31.79 31.05 30.84 30.52 30.41
25.58 24.65 25.40 23.14 22.36 16.23 27.03 30.90 30.45 28.40 30.01 29.79 31.01 33.36 35.08 35.09 36.27 36.06 35.66 35.37 37.06 38.04 38.34 37.48 37.30 36.59 35.75 35.73 34.70 35.08 31.93 32.45 32.77 32.51 32.58 32.67 32.58 32.07 31.06 30.61 30.47 28.80 27.71 27.16
31.17 27.77 24.22 21.40 19.78 24.11 26.60 27.84 23.85 24.78 25.10 22.93 23.35 24.93 27.02 27.37 30.94 30.87 30.25 30.82 31.77 33.68 36.63 37.32 36.30 36.59 37.07 35.14 35.36 32.09 29.93 31.29 31.61 31.88 31.88 31.93 32.36 31.29 30.68 30.10 29.02 24.78 26.12 29.28
30.45 30.61 25.58 23.82 19.28 16.31 23.55 26.94 25.44 27.22 23.36 21.61 21.56 21.06 21.86 24.21 23.86 24.74 25.92 26.98 28.37 30.82 31.25 32.22 33.47 33.55 32.75 34.37 31.10 30.24 30.16 30.61 31.23 32.13 31.92 31.88 31.98 31.51 30.47 30.45 28.34 25.10 22.71 28.37
20.09 23.76 20.70 21.20 19.53 22.20 21.07 22.47 23.64 19.92 17.79 20.96 21.05 20.79 20.95 19.61 21.31 24.00 24.16 24.36 25.62 26.62 26.29 29.36 30.20 30.97 31.60 30.51 29.98 29.86 29.36 30.12 32.87 31.13 30.57 30.51 30.91 31.08 31.02 28.68 25.23 28.16 27.64 29.21
17.54 18.47 19.60 21.09 17.72 14.68 22.85 21.19 19.84 20.02 23.01 21.17 20.04 20.00 19.40 20.71 22.04 22.42 22.18 22.20 22.85 22.36 22.86 24.50 25.35 28.33 30.31 27.91 29.39 28.65 29.26 29.82 27.51 28.31 29.17 29.61 29.80 30.55 29.15 28.27 27.27 27.99 28.88 28.33
17.24 15.37 16.71 15.76 16.28 22.83 23.84 22.16 23.67 23.72 22.39 20.62 19.23 18.89 19.19 19.17 20.35 20.77 19.62 20.35 20.51 20.56 21.97 22.20 22.03 23.24 25.69 28.03 27.43 27.66 27.49 26.88 25.88 25.56 26.06 26.95 27.59 29.30 29.20 28.31 27.73 28.25 29.01 28.32
21.04 23.60 16.86 16.40 22.07 21.44 20.60 19.78 20.17 21.35 19.57 18.64 17.58 16.42 16.33 15.27 17.74 19.55 19.04 19.49 19.68 19.83 19.06 19.41 19.85 19.51 20.27 22.69 25.87 27.60 27.24 26.03 26.15 25.30 23.90 24.81 27.78 27.72 27.79 28.92 29.01 28.66 28.79 28.18
17.65 18.39 17.12 18.33 21.37 17.86 15.41 15.15 14.70 16.43 16.58 15.40 15.40 14.88 14.65 14.27 15.66 16.78 16.26 16.29 16.61 17.30 16.61 16.65 17.28 17.47 17.66 19.90 24.19 25.99 27.68 24.03 24.32 24.00 24.39 26.32 28.10 27.91 27.87 28.85 29.08 29.51 29.82 29.71
15.88 11.33 14.08 12.31 13.27 16.01 15.11 13.09 11.94 11.57 11.20 11.33 10.34 10.49 12.88 13.21 13.50 13.22 11.91 12.73 12.54 11.97 12.52 13.65 14.26 13.93 15.16 17.63 20.18 21.99 26.69 25.91 22.49 24.36 23.58 26.38 27.73 27.65 28.38 28.39 28.27 32.39 31.98 32.22

GFSCGP_sfc_wetblb_279.txt.gz
Wetbulb
30.31 27.07 25.11 31.71 30.85 29.76 27.90 28.82 28.89 29.86 32.46 30.21 29.50 30.31 35.32 37.07 32.50 32.00 34.48 35.48 35.58 36.83 40.58 39.15 40.77 40.88 40.11 41.01 41.38 41.76 40.93 39.85 39.86 36.69 35.76 36.04 36.87 37.40 38.02 38.82 41.10 41.36 41.26 41.44
26.31 24.40 29.74 29.79 30.64 30.70 29.52 27.65 28.08 30.84 31.24 29.40 28.49 28.54 32.98 35.01 34.18 35.95 36.56 37.07 37.03 38.26 37.76 38.01 37.72 39.76 39.96 40.64 41.49 41.50 41.70 39.82 40.83 39.77 37.21 37.91 37.46 37.46 37.93 39.41 40.48 41.05 41.29 40.88
23.92 26.64 29.77 28.93 26.94 26.93 25.65 25.12 25.66 28.15 29.85 28.75 27.21 29.34 31.25 33.34 33.46 35.17 36.46 38.63 38.60 37.54 37.78 36.68 36.59 38.82 40.11 40.19 41.02 41.38 41.38 40.49 40.93 40.25 39.02 37.46 37.75 37.10 37.17 38.11 39.08 40.53 40.92 40.65
25.32 27.95 28.83 27.03 26.53 27.74 23.49 27.14 27.20 26.06 25.55 22.04 26.08 23.53 29.00 33.05 34.01 34.32 36.64 35.91 37.02 36.64 37.48 37.43 36.89 37.54 38.98 40.45 41.48 41.59 41.29 40.31 40.46 40.18 39.77 37.44 36.54 35.49 36.83 38.25 39.10 39.70 40.42 39.89
24.82 25.07 25.12 25.24 26.64 28.31 25.38 27.16 26.43 25.03 21.94 20.93 20.14 21.19 25.08 29.61 31.85 34.57 36.46 35.26 35.55 36.66 36.39 36.40 36.82 38.09 39.57 40.59 40.38 40.93 40.59 40.25 40.63 40.50 40.75 39.30 35.81 36.18 36.86 37.41 38.27 38.04 38.80 39.24
25.61 26.23 26.13 26.62 26.18 26.64 28.24 26.56 26.43 23.72 21.02 12.57 21.13 23.57 29.12 29.64 32.60 33.99 34.13 34.89 36.26 35.04 34.53 35.01 36.31 37.69 38.44 39.89 39.58 40.15 39.79 39.63 40.09 40.31 40.10 39.35 37.77 36.53 36.68 36.61 36.74 36.84 37.08 37.21
23.83 24.27 24.85 27.35 24.67 25.82 25.38 22.42 14.49 10.71 8.14 14.87 19.35 20.55 27.39 31.44 34.19 34.58 36.45 37.31 36.31 34.96 34.45 33.92 33.90 35.56 37.27 37.37 37.98 39.51 39.53 39.24 39.22 39.62 39.53 39.24 38.53 37.61 37.55 37.19 36.79 35.48 35.28 34.77
18.72 17.30 23.62 26.23 25.93 24.43 22.93 22.79 17.91 10.92 12.55 18.19 21.92 19.32 26.61 32.58 34.31 35.55 35.85 36.39 36.23 34.19 34.20 34.48 33.93 34.96 36.12 37.17 37.44 39.06 38.90 39.38 38.87 39.29 39.26 39.46 38.92 38.42 37.84 37.39 36.07 35.58 35.11 34.70
16.66 20.78 23.74 25.91 24.91 25.64 23.21 19.92 23.15 19.03 12.19 14.38 20.90 24.20 29.75 33.62 33.47 32.92 34.71 33.55 34.77 34.74 34.82 34.78 34.27 34.01 34.72 36.40 37.56 38.82 38.91 39.90 39.28 39.39 39.32 38.21 37.79 37.02 36.82 36.18 35.94 34.99 34.76 35.43
25.55 19.48 22.90 23.83 24.33 23.83 23.46 26.07 19.66 16.94 9.31 8.38 20.53 21.28 24.91 30.60 32.78 32.21 32.45 33.04 33.19 32.81 33.58 34.39 34.47 34.32 34.76 35.75 37.49 38.39 39.23 39.66 38.77 38.75 38.53 38.30 37.73 36.84 36.03 35.49 34.88 34.58 34.53 34.96
24.77 24.40 19.28 22.09 18.90 21.12 20.65 19.61 18.80 19.24 19.18 15.04 13.74 21.62 28.28 30.30 31.50 33.88 32.74 31.89 32.21 32.27 32.66 32.94 32.88 33.08 33.19 34.10 34.61 35.36 35.80 36.43 36.38 37.47 37.18 36.44 36.21 36.04 35.74 35.72 34.82 34.52 34.26 34.26
29.32 27.05 16.25 17.89 20.65 22.11 21.15 22.12 21.74 16.24 14.77 18.16 19.65 23.38 31.01 31.11 31.49 31.49 31.87 33.52 32.06 32.74 32.98 32.29 32.36 32.50 32.40 33.50 33.88 34.25 34.37 34.98 36.30 36.52 36.11 36.20 35.92 35.97 35.52 35.12 34.49 34.31 33.70 33.80
29.71 25.98 18.43 20.96 20.99 19.29 15.16 22.07 24.06 23.16 21.91 16.14 16.96 24.50 29.97 29.57 30.11 31.10 32.10 32.93 34.51 33.61 31.17 32.26 32.01 32.51 33.23 33.13 33.24 33.80 34.15 34.73 34.74 34.80 34.62 34.36 35.12 35.13 35.32 35.11 34.31 33.90 33.32 33.07
35.67 27.84 25.07 22.57 23.39 22.11 18.14 16.52 23.05 22.59 16.80 24.24 23.82 26.70 26.70 28.04 29.16 30.43 30.78 33.39 34.28 34.09 33.52 32.75 32.28 32.55 32.95 33.17 33.06 33.21 34.27 35.05 34.71 35.30 34.75 34.62 34.79 35.34 35.32 35.11 34.18 33.70 33.23 32.45
33.28 26.41 28.17 28.13 27.42 22.64 24.35 20.16 20.79 21.78 25.33 20.16 28.35 27.05 28.60 30.56 29.06 29.26 30.13 32.70 32.88 33.89 34.25 33.79 33.71 33.70 32.89 32.75 32.80 33.22 34.22 34.17 35.17 35.25 34.49 35.13 35.04 35.22 34.79 33.99 33.63 32.96 32.46 32.08
29.78 25.78 27.20 27.79 30.09 30.42 26.01 24.27 24.05 24.51 24.61 25.57 26.44 25.00 29.64 30.19 28.95 29.95 31.43 31.79 31.96 32.22 33.46 35.34 35.67 34.83 33.81 34.10 33.31 33.16 32.83 32.54 33.86 34.71 35.07 35.02 34.08 33.99 33.82 33.53 32.49 31.91 31.54 30.89
26.63 25.70 25.35 23.01 27.67 26.74 20.87 25.98 26.06 23.37 23.54 25.43 21.46 28.06 31.24 31.51 31.45 29.66 28.41 28.34 28.74 29.20 30.24 30.75 33.32 35.15 36.11 36.05 34.86 33.79 34.54 32.39 32.95 33.74 34.02 33.67 33.85 33.32 33.06 32.55 31.79 31.43 31.00 30.43
25.66 24.63 25.62 22.41 22.76 17.02 27.36 31.43 32.03 29.97 31.94 30.93 31.32 32.62 26.31 25.11 26.56 25.88 25.27 24.46 25.41 26.65 27.95 28.21 29.52 30.19 32.42 34.30 34.35 33.25 32.12 31.03 32.19 32.39 32.52 33.35 32.91 32.90 32.14 31.44 31.46 30.77 29.87 29.65
29.01 25.34 21.83 19.53 19.46 23.50 26.14 24.40 23.53 24.86 21.66 21.48 21.10 22.01 22.66 23.43 25.82 24.23 25.10 24.98 24.48 25.07 26.13 25.88 27.01 27.73 30.67 31.31 31.82 31.48 30.44 30.23 30.17 30.67 31.76 32.52 32.79 32.29 31.37 31.07 30.62 29.99 27.61 23.94
27.70 28.55 22.54 21.01 17.71 14.13 21.18 21.84 23.95 23.79 18.57 20.56 20.95 19.88 19.62 22.29 21.62 20.28 24.05 24.13 23.70 24.36 24.30 24.21 24.11 25.78 27.35 28.26 28.25 28.85 29.86 29.73 29.48 31.94 33.02 32.75 32.67 32.51 31.38 31.80 30.27 25.53 26.32 28.91
16.66 21.59 19.61 20.07 17.71 16.41 20.71 22.19 22.88 19.46 15.23 20.81 20.84 19.97 19.90 18.54 20.42 23.13 23.94 22.40 23.13 23.33 22.44 23.40 22.49 23.31 24.09 24.89 25.80 27.48 28.80 27.72 29.89 28.67 28.67 30.40 31.94 32.14 32.09 31.04 28.48 27.01 26.88 24.81
9.07 11.97 13.35 15.07 14.87 11.57 22.29 20.60 16.94 19.44 22.65 21.59 20.35 20.25 19.99 20.50 21.30 22.13 21.90 21.69 20.99 20.44 20.49 20.90 19.32 21.03 22.08 22.31 23.43 24.86 26.12 27.96 28.07 26.63 27.30 28.30 29.33 30.94 30.67 29.77 27.33 27.56 27.12 26.36
12.16 15.77 11.65 14.60 15.28 21.27 22.32 20.69 23.22 23.47 23.11 21.14 19.27 18.50 17.14 16.55 17.17 17.61 19.33 20.07 18.78 18.59 19.12 18.71 16.57 18.41 18.05 18.83 20.61 22.82 23.84 27.22 26.88 25.95 25.33 25.32 27.39 29.54 29.97 28.86 27.49 26.82 27.44 28.10
19.63 22.64 16.35 12.58 19.61 19.12 19.69 18.61 19.45 20.41 19.06 18.49 17.99 16.21 16.00 14.22 15.74 16.57 17.91 17.98 17.64 17.47 16.47 15.24 14.82 15.19 14.61 15.86 17.85 19.17 21.17 24.85 25.75 25.17 23.46 22.24 24.35 24.81 27.48 29.48 29.22 29.22 28.25 28.28
15.97 18.48 13.02 15.63 18.65 18.34 15.15 13.92 14.85 16.37 16.51 14.94 14.91 14.37 13.46 13.40 13.89 14.95 14.33 14.29 14.21 13.83 14.24 12.63 12.66 12.52 11.75 13.22 14.34 17.00 18.22 20.44 22.69 25.58 23.16 21.78 23.44 25.36 26.60 28.64 29.66 30.11 30.71 30.92
12.85 9.13 12.70 11.51 11.17 13.30 13.80 12.84 11.24 10.94 10.67 11.07 10.15 9.81 11.84 11.62 11.36 11.29 10.19 10.80 10.17 9.48 9.55 9.77 9.26 8.05 8.77 9.29 12.31 14.60 15.44 17.91 18.71 22.61 25.44 22.99 22.78 22.64 24.69 26.41 25.42 32.35 32.70 32.85

GFSCGP_sfc_wetblb_285.txt.gz
Wetbulb
28.92 25.81 23.21 27.22 33.31 28.47 28.41 27.32 27.38 29.83 32.39 30.85 29.43 31.33 34.41 37.65 35.53 34.73 37.42 38.95 39.73 39.46 41.65 43.20 42.81 42.89 42.38 42.00 41.82 42.40 42.33 42.51 41.77 39.92 39.73 40.27 40.28 40.89 40.57 41.61 43.31 43.85 44.49 43.42
25.73 23.92 29.06 28.62 29.21 29.37 27.92 26.48 26.66 28.71 30.74 30.03 28.80 29.28 32.99 34.48 35.50 36.63 37.38 37.98 38.94 39.82 39.09 41.01 42.39 41.96 41.69 41.48 41.95 42.32 42.50 42.21 42.24 42.26 42.05 41.36 40.46 40.38 41.99 41.86 42.40 43.72 44.07 43.33
26.00 27.25 28.12 29.07 26.18 27.14 25.95 27.00 25.51 26.89 27.84 27.17 25.36 28.39 31.88 32.12 33.99 35.29 37.10 38.24 38.59 38.92 39.44 38.23 39.80 40.86 41.60 41.62 41.73 42.33 42.73 42.34 42.61 43.18 40.32 39.16 40.14 39.81 40.28 40.66 41.50 42.66 43.55 43.15
26.52 27.82 26.69 25.54 25.74 27.29 25.06 26.73 27.58 26.58 25.13 20.20 23.51 21.74 28.51 31.25 33.90 32.73 34.73 35.97 36.73 37.35 37.59 38.04 38.32 39.38 40.70 41.91 43.08 43.34 43.01 42.49 42.56 42.02 40.98 40.25 40.92 39.51 40.50 41.21 41.93 42.03 42.92 42.47
25.88 23.96 25.08 25.11 25.86 28.30 25.61 25.55 25.00 25.23 21.91 20.37 19.39 20.24 26.10 28.33 29.74 32.14 34.00 34.87 34.78 34.52 35.00 36.51 37.22 39.15 40.30 41.90 42.34 43.07 42.83 42.35 42.34 41.51 41.90 41.01 41.33 41.86 40.00 40.13 40.90 41.49 41.58 42.35
25.78 26.22 26.43 26.53 26.38 27.29 26.97 25.34 24.68 21.78 20.69 12.32 20.07 22.13 29.06 28.96 29.83 30.43 32.48 34.49 35.95 36.45 36.79 35.51 35.47 37.14 37.93 40.53 41.74 42.35 42.07 41.52 41.69 41.43 41.59 41.40 40.79 39.65 38.87 39.28 39.91 40.26 40.91 40.92
24.17 24.81 25.38 27.33 24.82 26.18 25.53 23.19 14.94 11.29 9.05 15.09 17.37 19.62 29.66 30.80 31.38 31.37 32.46 33.14 34.42 34.50 34.99 35.34 34.39 34.44 35.97 37.83 39.74 41.04 41.24 40.48 40.80 40.57 41.18 41.58 41.14 40.40 40.21 39.55 39.90 38.97 39.40 39.69
19.06 17.27 24.00 26.30 26.51 24.54 23.49 23.78 17.68 10.92 11.62 17.35 19.63 17.97 26.36 29.18 31.21 31.91 31.75 33.44 34.03 34.23 34.64 34.88 34.99 33.63 34.38 36.53 38.39 40.06 39.83 40.06 40.02 40.38 40.90 41.63 41.08 40.82 40.68 40.10 40.09 40.31 40.24 40.77
15.80 19.77 23.63 26.06 25.39 28.21 23.25 20.80 24.21 18.48 10.91 14.44 20.07 23.18 28.22 31.53 31.64 32.31 32.67 32.78 33.68 33.51 34.43 34.93 34.99 33.60 33.59 35.60 37.38 39.23 38.99 39.34 39.28 40.04 40.53 40.31 39.61 39.60 39.15 39.38 40.06 39.94 40.52 39.34
23.85 18.17 22.59 23.89 26.02 24.46 24.48 26.22 19.86 17.08 9.69 8.33 20.19 20.67 24.97 30.87 31.60 31.23 31.64 30.99 32.48 33.44 33.80 33.44 33.08 33.34 33.40 34.67 35.90 37.73 38.74 38.66 39.02 39.81 39.93 39.65 39.30 39.68 39.86 39.21 38.70 38.88 39.24 38.95
24.98 25.12 18.61 21.99 19.09 21.32 22.03 20.75 19.79 20.40 19.58 15.57 12.97 21.15 26.35 27.29 29.20 29.08 28.81 29.81 30.07 30.54 30.75 30.88 31.44 31.51 31.83 32.71 33.83 34.86 36.17 36.86 37.41 38.58 39.09 39.11 38.67 38.90 38.75 38.78 39.09 39.10 38.84 38.10
24.94 23.94 17.92 15.69 19.83 21.86 22.95 24.98 22.42 17.14 14.34 16.09 17.85 20.04 28.78 28.70 29.11 28.81 27.87 29.22 30.04 30.22 30.24 30.82 30.98 31.10 31.16 31.75 32.29 33.27 34.34 35.46 36.80 37.90 37.29 37.75 37.52 37.83 37.97 38.31 38.60 38.41 37.64 37.46
26.50 23.08 9.34 20.58 20.95 20.60 15.67 21.30 23.94 23.20 21.57 15.47 16.27 22.01 28.20 27.98 26.98 26.34 26.74 28.33 29.39 29.61 29.43 30.14 30.76 31.02 31.51 31.48 31.52 32.38 32.91 33.94 34.72 35.29 35.87 35.38 36.03 36.64 37.20 37.24 36.82 37.08 36.70 36.52
29.39 26.34 21.91 19.59 21.17 17.20 14.33 16.63 22.71 24.50 20.05 23.83 22.14 24.45 25.52 26.28 25.65 25.36 26.11 26.99 27.51 27.43 27.55 27.57 27.86 28.62 30.06 30.96 31.14 31.58 31.85 33.44 33.74 34.29 34.45 35.05 35.77 36.24 36.44 36.37 36.25 36.21 36.06 35.47
22.90 18.62 27.25 27.00 25.52 21.24 17.96 16.78 19.64 20.26 25.22 22.75 27.93 25.83 27.47 27.41 25.80 24.79 25.45 25.17 24.70 24.61 25.04 25.16 25.47 25.97 27.40 28.86 28.96 29.82 30.60 31.27 32.88 33.31 33.47 33.92 34.48 34.70 34.65 34.77 35.18 35.51 35.38 35.27
21.67 16.82 21.48 22.41 27.46 29.09 27.50 26.41 20.63 23.26 23.90 25.48 26.57 25.94 28.78 27.01 25.61 23.90 23.68 23.74 23.11 22.98 23.50 24.01 24.22 24.58 25.47 25.70 26.11 27.29 28.62 29.57 30.46 31.92 33.08 33.52 33.54 33.79 34.13 34.28 34.23 34.21 34.23 33.99
17.55 19.75 15.44 13.11 21.78 24.12 22.24 27.43 20.21 24.19 26.24 26.83 22.49 27.81 27.97 25.68 22.72 21.97 22.72 22.64 22.32 22.42 22.64 22.58 22.54 23.11 24.30 23.96 24.18 24.43 28.03 29.64 29.71 29.79 30.94 32.23 32.83 32.78 32.76 33.29 33.45 33.51 33.41 33.52
18.29 17.83 18.50 13.92 13.19 8.01 24.36 21.50 22.77 27.16 22.70 22.48 25.54 21.58 23.66 22.68 22.38 22.48 22.89 21.96 21.76 21.98 21.43 21.69 20.94 21.97 23.16 22.75 22.52 26.03 27.43 27.44 27.88 27.89 28.33 29.51 30.66 30.98 31.90 31.15 32.18 32.76 32.98 32.53
24.31 19.83 16.05 12.98 10.85 18.03 21.56 18.20 16.47 16.98 15.55 20.56 19.91 21.01 22.46 24.08 24.16 21.80 23.17 22.86 21.62 21.64 21.47 21.46 20.72 21.43 21.65 20.58 20.78 24.38 24.72 24.23 24.40 24.91 26.15 27.21 28.13 29.18 29.97 30.74 31.39 32.41 32.24 32.15
21.37 21.85 15.80 11.43 9.07 7.23 13.54 18.99 24.16 22.90 10.37 21.28 21.20 20.17 20.29 23.02 19.83 18.89 21.55 22.16 21.11 21.13 20.56 19.86 19.46 20.51 19.89 18.85 19.15 21.29 21.96 21.09 20.00 21.47 23.65 26.61 27.60 28.57 29.39 30.98 31.53 32.39 32.46 32.59
5.13 8.12 7.86 7.32 8.37 13.06 18.65 21.55 23.49 11.95 11.28 21.14 20.38 18.98 18.92 17.56 18.69 20.77 20.63 20.72 20.85 19.99 19.05 19.13 17.77 17.76 17.46 17.13 17.12 16.86 18.77 17.40 18.68 19.78 21.80 25.45 27.85 27.89 29.29 30.84 30.50 31.24 32.04 32.12
8.05 4.12 2.41 6.09 7.81 5.61 21.35 20.73 14.53 19.43 23.40 21.62 19.21 17.87 17.50 18.11 18.83 18.26 18.64 19.17 18.34 17.10 16.91 16.79 15.10 15.76 15.77 14.79 14.43 13.06 14.34 16.28 15.86 17.16 19.53 21.53 26.62 28.31 29.29 30.11 30.39 29.45 31.10 30.15
2.98 9.62 7.55 11.81 11.83 20.13 22.73 22.08 21.14 22.56 21.32 18.45 17.81 16.65 15.58 15.33 14.88 15.81 15.55 16.90 16.56 15.32 15.02 14.55 12.92 13.83 13.63 12.90 12.95 10.62 11.76 14.06 12.67 13.94 16.54 19.38 23.82 27.73 28.39 29.04 29.50 29.06 30.23 30.44
9.57 13.23 15.20 14.41 12.10 16.00 18.04 17.51 18.08 18.05 16.04 15.56 14.50 14.11 13.26 11.15 13.89 14.17 15.11 14.72 13.94 13.27 12.37 11.51 11.30 11.18 10.95 11.45 10.79 10.37 11.29 11.04 10.03 10.49 13.56 17.59 20.00 22.70 27.19 28.29 29.04 29.44 29.08 29.30
14.21 12.47 8.53 13.26 18.81 17.18 14.75 13.83 14.17 15.32 14.37 12.83 12.55 12.01 11.51 10.78 11.28 11.70 11.40 11.45 11.22 10.59 10.42 8.82 8.55 9.15 8.49 9.28 8.54 8.67 9.71 8.64 7.94 9.12 11.81 14.95 17.91 20.22 24.05 27.36 28.35 28.95 30.10 30.90
11.04 8.64 12.80 12.22 9.37 9.95 11.89 11.55 10.52 10.58 9.10 9.60 8.46 7.88 9.38 8.80 7.91 8.67 7.92 8.67 7.96 7.58 6.97 6.16 6.57 6.08 5.21 5.22 5.55 6.62 7.42 7.36 5.55 6.89 9.67 11.59 14.59 17.89 22.55 24.74 26.63 30.68 32.05 32.97

GFSCGP_sfc_wetblb_291.txt.gz
Wetbulb
37.64 33.44 33.02 35.89 37.68 37.47 37.33 36.33 35.67 38.59 41.13 38.59 38.55 39.22 41.18 43.47 44.16 44.52 45.28 46.28 46.92 48.32 50.77 52.45 53.13 53.03 53.20 54.33 54.15 54.64 54.00 52.87 51.51 48.46 47.50 47.88 47.25 48.93 49.99 50.54 50.57 50.70 50.40 50.19
35.93 31.23 39.19 41.14 39.77 37.20 36.39 35.06 35.61 38.32 39.62 38.69 37.23 36.74 40.16 41.33 42.39 43.50 43.68 44.16 44.87 45.78 46.91 48.26 49.61 51.93 51.85 52.71 53.21 53.50 53.21 51.87 50.64 48.57 47.74 47.95 48.20 48.92 49.11 49.50 49.36 50.24 49.72 49.02
35.12 38.22 41.12 38.69 37.96 35.04 35.62 34.88 35.86 35.67 38.95 38.89 36.25 34.81 37.79 40.90 42.49 42.95 43.51 44.41 44.92 44.95 45.19 46.49 48.04 49.44 51.27 51.21 51.75 51.57 52.02 51.32 50.40 49.76 48.88 48.72 48.74 48.21 47.22 47.53 47.35 48.37 48.84 49.06
36.83 40.76 38.15 38.91 35.32 37.19 31.31 38.02 36.97 35.52 33.90 29.86 37.12 29.19 37.29 40.36 40.61 42.38 43.22 43.85 44.05 44.73 45.74 46.14 46.78 47.67 49.17 50.37 52.17 51.72 51.43 50.61 49.97 49.60 47.91 46.55 44.82 43.55 44.97 45.76 46.30 46.51 48.88 48.78
34.68 35.72 34.39 33.27 36.80 37.35 33.50 37.33 36.31 35.21 32.43 32.40 33.10 28.40 34.69 39.26 37.96 40.07 42.34 43.98 44.39 45.51 45.83 45.29 46.00 47.31 48.30 49.91 50.74 50.82 50.40 49.96 49.60 48.76 48.28 46.73 45.29 45.70 45.79 45.40 45.39 45.90 47.24 48.68
34.83 39.39 34.89 36.08 38.50 38.58 37.90 34.07 32.08 32.42 31.09 24.87 31.52 31.99 32.87 37.41 40.60 43.12 43.79 43.47 43.80 44.81 45.36 45.35 45.87 46.39 46.70 49.32 50.65 50.67 49.12 48.74 49.08 48.04 48.13 46.90 45.77 45.14 44.19 44.13 44.29 45.41 46.55 47.29
32.52 34.15 36.10 33.54 31.43 33.42 35.05 30.51 24.05 21.53 20.97 21.60 34.07 31.50 34.32 40.00 40.79 41.27 41.38 42.45 44.19 43.76 44.81 45.16 45.35 45.67 44.93 46.99 49.25 49.80 48.87 47.71 48.40 47.70 47.66 47.28 46.80 46.01 45.28 44.63 44.77 45.19 45.55 45.92
22.79 25.19 34.61 36.25 31.97 31.62 30.27 31.13 27.08 20.19 23.10 26.68 33.93 27.29 34.83 41.40 42.20 42.73 41.60 41.93 42.57 43.52 44.24 42.58 42.35 42.75 43.28 44.22 46.21 47.65 47.76 47.75 48.23 47.70 47.50 47.80 47.60 46.95 46.20 45.56 45.86 45.96 45.63 45.74
18.26 22.46 33.47 32.51 34.10 34.44 30.91 25.81 34.02 26.96 28.87 24.16 30.66 32.43 37.73 39.80 39.40 40.53 39.90 41.25 40.44 39.79 39.82 39.80 40.27 40.78 41.18 42.67 44.15 46.10 46.56 47.62 47.90 47.67 47.92 47.67 47.76 47.38 45.79 45.93 46.62 46.50 46.61 45.99
21.84 17.24 29.04 30.83 31.45 32.82 31.47 33.55 25.41 27.09 18.94 19.01 26.38 30.04 33.09 38.18 38.35 36.79 36.66 36.92 37.17 37.94 37.88 38.07 38.56 39.05 40.22 41.14 42.85 44.33 45.72 45.92 47.36 47.56 47.54 47.28 47.32 47.65 47.10 46.96 46.42 46.24 46.01 45.45
23.59 19.52 22.32 28.19 26.01 27.58 28.42 26.53 29.28 29.41 27.85 23.56 22.86 29.54 34.30 34.08 35.11 34.32 34.26 35.01 35.36 35.64 35.56 36.17 36.88 37.69 38.80 39.80 40.75 42.16 43.46 44.37 45.50 46.11 46.53 46.75 46.65 47.18 47.01 46.63 46.57 46.53 46.08 45.16
22.62 19.12 15.31 18.62 30.01 30.05 27.72 28.14 29.59 23.90 23.53 27.85 27.65 29.89 34.99 34.71 34.78 34.89 33.78 34.10 34.78 34.93 34.91 35.29 35.20 35.49 35.42 36.23 37.74 38.38 40.23 42.16 43.54 44.66 45.36 45.86 46.21 46.44 45.98 45.89 46.04 46.38 45.56 45.55
21.61 15.56 10.35 14.91 25.78 24.18 21.86 24.00 27.56 27.91 28.71 24.23 22.95 27.07 35.17 34.32 33.61 34.02 33.14 33.43 33.18 33.04 33.05 33.19 33.20 32.64 32.86 33.84 35.09 36.21 36.91 37.57 39.96 42.56 43.48 44.29 44.87 45.12 45.17 45.23 45.68 45.87 45.53 44.99
24.61 16.54 12.08 8.22 13.42 18.09 15.54 21.24 23.28 24.80 20.10 23.75 25.73 29.41 32.98 33.00 32.37 32.17 31.96 32.18 31.58 31.11 30.58 30.84 30.46 30.17 30.68 31.52 32.85 33.75 34.69 36.13 37.91 40.03 41.37 42.38 43.51 44.10 44.39 44.99 45.00 45.01 45.22 44.26
20.69 11.00 13.67 16.35 18.19 18.30 18.91 20.56 21.54 20.30 25.43 21.12 26.16 28.84 34.39 35.66 31.66 29.71 30.94 30.59 29.07 27.72 27.43 27.35 27.10 26.87 26.86 27.92 30.65 31.21 31.81 33.46 35.62 36.48 37.80 39.31 41.56 42.79 43.44 43.69 43.95 44.25 44.32 43.92
20.82 12.05 14.61 10.39 17.36 19.33 17.45 21.05 21.92 23.75 24.50 26.08 27.11 28.11 30.30 30.25 30.26 27.89 27.34 26.61 25.03 24.67 24.62 24.91 25.47 24.85 23.85 24.26 26.47 28.51 28.73 29.89 32.02 32.47 32.77 34.19 35.99 38.94 40.47 41.72 42.21 42.26 42.07 42.34
17.11 14.67 11.95 7.94 17.04 17.38 12.57 19.21 20.82 22.00 20.81 20.43 21.21 23.63 27.40 27.33 24.17 23.87 24.52 23.82 22.79 22.88 22.87 22.34 22.97 23.00 22.37 22.31 24.51 25.34 25.72 26.85 27.53 28.05 29.01 29.91 31.78 32.49 33.79 36.00 39.23 39.38 39.92 40.75
16.06 14.70 14.41 10.82 11.28 5.70 18.37 23.01 21.98 19.99 19.29 20.52 20.75 21.70 24.52 23.73 22.37 22.58 23.26 22.08 20.80 21.23 20.70 20.70 21.81 21.46 21.00 21.07 22.23 24.44 22.95 22.42 22.70 23.03 24.59 26.05 27.70 29.29 31.39 32.35 33.80 36.20 37.70 35.27
21.48 16.24 10.38 6.95 8.18 13.92 18.60 19.19 19.04 17.87 16.45 20.77 19.95 20.66 22.68 23.13 22.59 19.85 23.02 22.67 21.19 21.07 20.90 20.35 21.45 20.49 19.85 18.73 20.53 21.56 19.67 19.34 18.61 18.23 20.09 22.52 25.09 27.25 29.28 30.08 31.06 32.07 32.17 32.76
20.10 18.84 12.78 10.60 3.33 3.55 15.08 19.60 24.15 23.64 13.96 21.52 21.29 20.29 20.13 23.70 18.43 17.09 22.30 22.44 21.62 20.97 20.49 19.47 20.53 20.26 18.40 17.53 18.84 18.81 16.97 15.90 14.85 15.99 17.21 20.54 23.16 24.89 27.53 29.23 30.37 32.20 31.66 31.58
11.18 12.82 8.91 9.53 6.41 11.73 19.30 21.84 24.93 12.35 13.75 22.29 21.86 20.77 20.33 17.27 18.69 21.04 22.26 21.55 21.12 19.74 19.15 19.50 19.82 18.33 17.01 16.68 16.91 16.17 15.26 13.34 13.98 15.05 16.82 18.44 20.70 23.48 26.14 27.28 30.56 31.55 31.83 31.70
10.28 8.75 8.81 9.98 5.68 3.47 22.92 21.17 14.50 19.62 23.52 23.80 22.29 20.71 19.89 20.64 20.95 20.57 20.75 20.33 19.32 17.86 17.60 17.32 16.70 16.79 16.19 14.87 14.58 13.85 12.39 13.26 13.17 13.20 14.37 15.78 18.20 21.50 23.66 25.49 28.44 31.08 32.33 31.97
9.73 14.82 11.49 12.35 12.23 21.49 24.14 22.00 24.62 22.69 22.11 21.37 20.72 19.29 17.87 18.10 17.91 18.47 17.81 18.05 17.48 16.85 16.17 16.04 14.46 14.75 14.81 13.71 12.62 11.00 11.38 11.22 10.81 11.44 12.26 14.14 16.80 18.71 20.70 22.67 26.19 28.05 30.65 31.57
17.47 21.32 14.58 14.97 18.29 20.89 23.41 22.86 20.91 20.24 19.06 18.37 17.67 17.03 17.03 15.22 16.40 16.12 16.73 16.67 16.35 16.35 14.73 14.41 13.15 12.53 12.43 12.80 11.48 10.20 10.09 9.21 8.43 9.05 10.65 13.28 14.38 15.37 18.04 20.78 24.13 24.67 26.48 28.44
18.90 19.76 16.02 15.96 19.68 21.98 22.57 20.30 20.08 19.25 17.49 15.95 15.72 14.86 14.37 13.95 14.12 14.58 14.11 14.41 14.66 14.34 14.08 12.81 11.59 11.43 10.93 11.44 9.91 9.63 8.69 7.14 6.75 7.59 9.52 12.17 12.95 14.03 15.22 18.11 21.04 20.88 24.01 26.79
20.68 17.19 14.92 13.75 21.22 19.87 21.07 19.98 16.94 15.92 16.52 14.54 12.82 12.75 13.70 12.84 11.83 12.43 11.77 12.57 11.71 11.13 11.44 9.82 9.69 9.17 9.42 9.10 8.34 7.76 6.20 5.15 3.89 5.12 7.92 9.22 10.24 11.88 13.65 15.30 17.39 20.72 22.82 24.43